Time,TemperatureF,DewpointF,PressureIn,WindDirection,WindDirectionDegrees,WindSpeedMPH,WindSpeedGustMPH,Humidity,HourlyPrecipIn,Conditions,Clouds,dailyrainin,SoftwareType,DateUTC
2013-03-07 00:00:00,39.2,37.1,29.85,NW,318,0.0,0.0,92,0.00,,---,0.01,VWS V14.00,2013-03-07 08:00:00,
2013-03-07 00:05:00,39.2,37.1,29.85,NW,318,0.0,0.0,92,0.00,,---,0.00,VWS V14.00,2013-03-07 08:05:00,
2013-03-07 00:10:00,39.2,37.1,29.85,NW,318,0.0,1.0,92,0.00,,---,0.00,VWS V14.00,2013-03-07 08:10:00,
2013-03-07 00:15:00,39.2,37.1,29.86,NW,318,0.0,0.0,92,0.00,,---,0.00,VWS V14.00,2013-03-07 08:15:00,
2013-03-07 00:20:00,39.2,37.1,29.86,NW,318,0.0,0.0,92,0.00,,---,0.00,VWS V14.00,2013-03-07 08:20:00,
2013-03-07 00:25:00,39.2,37.1,29.87,NW,318,0.0,0.0,92,0.00,,---,0.00,VWS V14.00,2013-03-07 08:25:00,
2013-03-07 00:30:00,39.2,37.1,29.87,NW,318,0.0,0.0,92,0.00,,---,0.00,VWS V14.00,2013-03-07 08:30:00,
2013-03-07 00:35:00,39.2,37.1,29.86,NW,317,0.0,0.0,92,0.00,,---,0.00,VWS V14.00,2013-03-07 08:35:00,
2013-03-07 00:40:00,39.2,37.1,29.87,NW,318,0.0,0.0,92,0.00,,---,0.00,VWS V14.00,2013-03-07 08:40:00,
2013-03-07 00:45:00,39.1,37.0,29.87,NW,317,0.0,0.0,92,0.00,,---,0.00,VWS V14.00,2013-03-07 08:45:00,
2013-03-07 00:50:00,39.0,36.9,29.87,NW,318,0.0,0.0,92,0.00,,---,0.00,VWS V14.00,2013-03-07 08:50:00,
2013-03-07 00:55:00,39.0,36.9,29.87,NW,317,0.0,0.0,92,0.00,,---,0.00,VWS V14.00,2013-03-07 08:55:00,
2013-03-07 01:00:00,39.0,36.9,29.87,NW,318,0.0,0.0,92,0.00,,---,0.00,VWS V14.00,2013-03-07 09:00:00,
2013-03-07 01:05:00,39.0,36.9,29.88,NW,318,0.0,0.0,92,0.00,,---,0.00,VWS V14.00,2013-03-07 09:05:00,
2013-03-07 01:10:00,38.9,36.8,29.88,NW,318,0.0,0.0,92,0.00,,---,0.00,VWS V14.00,2013-03-07 09:10:00,
2013-03-07 01:15:00,38.9,36.8,29.88,NW,317,0.0,0.0,92,0.00,,---,0.00,VWS V14.00,2013-03-07 09:15:00,
2013-03-07 01:20:00,38.9,36.8,29.89,NW,318,0.0,0.0,92,0.00,,---,0.00,VWS V14.00,2013-03-07 09:20:00,
2013-03-07 01:25:00,38.9,36.8,29.89,NW,318,0.0,0.0,92,0.00,,---,0.00,VWS V14.00,2013-03-07 09:25:00,
2013-03-07 01:30:00,38.9,36.8,29.90,NW,318,0.0,0.0,92,0.00,,---,0.00,VWS V14.00,2013-03-07 09:30:00,
2013-03-07 01:35:00,38.8,36.7,29.90,NW,318,0.0,0.0,92,0.00,,---,0.00,VWS V14.00,2013-03-07 09:35:00,
2013-03-07 01:40:00,38.8,36.7,29.90,NW,318,0.0,0.0,92,0.00,,---,0.00,VWS V14.00,2013-03-07 09:40:00,
2013-03-07 01:45:00,38.8,36.7,29.90,NW,317,0.0,0.0,92,0.00,,---,0.00,VWS V14.00,2013-03-07 09:45:00,
2013-03-07 01:50:00,38.9,36.8,29.90,NW,318,0.0,0.0,92,0.00,,---,0.00,VWS V14.00,2013-03-07 09:50:00,
2013-03-07 01:55:00,38.9,36.8,29.90,NW,318,0.0,0.0,92,0.00,,---,0.00,VWS V14.00,2013-03-07 09:55:00,
2013-03-07 02:00:00,39.0,36.9,29.90,NW,318,0.0,0.0,92,0.00,,---,0.00,VWS V14.00,2013-03-07 10:00:00,
2013-03-07 02:05:00,39.0,36.9,29.91,NW,318,0.0,0.0,92,0.00,,---,0.00,VWS V14.00,2013-03-07 10:05:00,
2013-03-07 02:10:00,39.0,37.2,29.91,NW,318,0.0,0.0,93,0.00,,---,0.00,VWS V14.00,2013-03-07 10:10:00,
2013-03-07 02:15:00,39.1,37.2,29.91,NW,318,0.0,0.0,93,0.00,,---,0.00,VWS V14.00,2013-03-07 10:15:00,
2013-03-07 02:20:00,39.2,37.1,29.91,NW,318,0.0,0.0,92,0.00,,---,0.00,VWS V14.00,2013-03-07 10:20:00,
2013-03-07 02:25:00,39.2,37.1,29.91,NW,318,0.0,0.0,92,0.00,,---,0.00,VWS V14.00,2013-03-07 10:25:00,
2013-03-07 02:30:00,39.3,37.2,29.91,NW,317,0.0,0.0,92,0.00,,---,0.00,VWS V14.00,2013-03-07 10:30:00,
2013-03-07 02:35:00,39.3,37.2,29.91,NW,318,0.0,0.0,92,0.00,,---,0.00,VWS V14.00,2013-03-07 10:35:00,
2013-03-07 02:40:00,39.2,37.1,29.91,NW,318,0.0,0.0,92,0.00,,---,0.00,VWS V14.00,2013-03-07 10:40:00,
2013-03-07 02:45:00,39.2,37.3,29.91,NW,317,0.0,0.0,93,0.00,,---,0.00,VWS V14.00,2013-03-07 10:45:00,
2013-03-07 02:50:00,39.2,37.3,29.92,NW,318,0.0,1.0,93,0.00,,---,0.00,VWS V14.00,2013-03-07 10:50:00,
2013-03-07 02:55:00,39.2,37.3,29.91,NW,318,0.0,4.0,93,0.00,,---,0.00,VWS V14.00,2013-03-07 10:55:00,
2013-03-07 03:00:00,39.2,37.3,29.92,NW,317,0.0,0.0,93,0.00,,---,0.00,VWS V14.00,2013-03-07 11:00:00,
2013-03-07 03:05:00,39.2,37.3,29.92,NW,317,0.0,0.0,93,0.00,,---,0.00,VWS V14.00,2013-03-07 11:05:00,
2013-03-07 03:10:00,39.2,37.3,29.92,NW,318,0.0,0.0,93,0.00,,---,0.00,VWS V14.00,2013-03-07 11:10:00,
2013-03-07 03:15:00,39.2,37.3,29.92,NW,318,0.0,0.0,93,0.00,,---,0.00,VWS V14.00,2013-03-07 11:15:00,
2013-03-07 03:20:00,39.3,37.5,29.92,NW,318,0.0,0.0,93,0.00,,---,0.00,VWS V14.00,2013-03-07 11:20:00,
2013-03-07 03:25:00,39.3,37.5,29.92,NW,318,0.0,0.0,93,0.00,,---,0.00,VWS V14.00,2013-03-07 11:25:00,
2013-03-07 03:31:00,39.4,37.5,29.92,NW,318,0.0,0.0,93,0.00,,---,0.00,VWS V14.00,2013-03-07 11:31:00,
2013-03-07 03:36:00,39.4,37.5,29.92,NW,318,0.0,0.0,93,0.00,,---,0.00,VWS V14.00,2013-03-07 11:36:00,
2013-03-07 03:41:00,39.4,37.5,29.92,NW,318,0.0,0.0,93,0.00,,---,0.00,VWS V14.00,2013-03-07 11:41:00,
2013-03-07 03:46:00,39.4,37.5,29.92,NW,318,0.0,0.0,93,0.00,,---,0.00,VWS V14.00,2013-03-07 11:46:00,
2013-03-07 03:51:00,39.4,37.5,29.92,NW,318,0.0,0.0,93,0.00,,---,0.00,VWS V14.00,2013-03-07 11:51:00,
2013-03-07 03:56:00,39.4,37.5,29.92,NW,318,0.0,1.0,93,0.00,,---,0.00,VWS V14.00,2013-03-07 11:56:00,
2013-03-07 04:01:00,39.3,37.5,29.93,NW,318,0.0,0.0,93,0.00,,---,0.00,VWS V14.00,2013-03-07 12:01:00,
2013-03-07 04:06:00,39.3,37.5,29.93,NW,318,0.0,0.0,93,0.00,,---,0.00,VWS V14.00,2013-03-07 12:06:00,
2013-03-07 04:11:00,39.3,37.5,29.93,NW,317,1.0,2.0,93,0.00,,---,0.00,VWS V14.00,2013-03-07 12:11:00,
2013-03-07 04:16:00,39.3,37.5,29.93,NW,318,0.0,1.0,93,0.00,,---,0.00,VWS V14.00,2013-03-07 12:16:00,
2013-03-07 04:21:00,39.2,37.3,29.93,NW,318,0.0,0.0,93,0.00,,---,0.00,VWS V14.00,2013-03-07 12:21:00,
2013-03-07 04:26:00,39.2,37.3,29.93,NW,318,0.0,0.0,93,0.00,,---,0.00,VWS V14.00,2013-03-07 12:26:00,
2013-03-07 04:31:00,39.2,37.3,29.94,NW,318,0.0,0.0,93,0.00,,---,0.00,VWS V14.00,2013-03-07 12:31:00,
2013-03-07 04:36:00,39.2,37.3,29.94,NW,318,0.0,0.0,93,0.00,,---,0.00,VWS V14.00,2013-03-07 12:36:00,
2013-03-07 04:41:00,39.2,37.3,29.94,NW,318,0.0,0.0,93,0.00,,---,0.00,VWS V14.00,2013-03-07 12:41:00,
2013-03-07 04:46:00,39.2,37.3,29.94,NW,318,0.0,0.0,93,0.00,,---,0.00,VWS V14.00,2013-03-07 12:46:00,
2013-03-07 04:51:00,39.2,37.3,29.94,NW,317,0.0,0.0,93,0.00,,---,0.00,VWS V14.00,2013-03-07 12:51:00,
2013-03-07 04:56:00,39.2,37.3,29.94,NW,318,0.0,0.0,93,0.00,,---,0.00,VWS V14.00,2013-03-07 12:56:00,
2013-03-07 05:01:00,39.2,37.3,29.94,NW,318,0.0,0.0,93,0.00,,---,0.00,VWS V14.00,2013-03-07 13:01:00,
2013-03-07 05:06:00,39.2,37.3,29.94,NW,317,0.0,0.0,93,0.00,,---,0.00,VWS V14.00,2013-03-07 13:06:00,
2013-03-07 05:11:00,39.3,37.5,29.94,NW,317,0.0,0.0,93,0.00,,---,0.00,VWS V14.00,2013-03-07 13:11:00,
2013-03-07 05:16:00,39.3,37.5,29.95,NW,318,0.0,0.0,93,0.00,,---,0.00,VWS V14.00,2013-03-07 13:16:00,
2013-03-07 05:21:00,39.3,37.5,29.95,NW,318,0.0,0.0,93,0.00,,---,0.00,VWS V14.00,2013-03-07 13:21:00,
2013-03-07 05:26:00,39.3,37.5,29.95,NW,317,0.0,0.0,93,0.00,,---,0.00,VWS V14.00,2013-03-07 13:26:00,
2013-03-07 05:31:00,39.4,37.5,29.95,NW,318,0.0,0.0,93,0.00,,---,0.00,VWS V14.00,2013-03-07 13:31:00,
2013-03-07 05:36:00,39.4,37.5,29.95,NW,318,0.0,0.0,93,0.00,,---,0.00,VWS V14.00,2013-03-07 13:36:00,
2013-03-07 05:41:00,39.4,37.5,29.95,NW,318,0.0,0.0,93,0.00,,---,0.00,VWS V14.00,2013-03-07 13:41:00,
2013-03-07 05:46:00,39.4,37.5,29.95,NW,318,0.0,1.0,93,0.00,,---,0.00,VWS V14.00,2013-03-07 13:46:00,
2013-03-07 05:51:00,39.4,37.5,29.96,NW,318,0.0,0.0,93,0.00,,---,0.00,VWS V14.00,2013-03-07 13:51:00,
2013-03-07 05:56:00,39.4,37.5,29.96,NW,317,0.0,0.0,93,0.00,,---,0.00,VWS V14.00,2013-03-07 13:56:00,
2013-03-07 06:01:00,39.4,37.5,29.96,NW,318,0.0,0.0,93,0.00,,---,0.00,VWS V14.00,2013-03-07 14:01:00,
2013-03-07 06:06:00,39.3,37.5,29.96,NW,318,0.0,0.0,93,0.00,,---,0.00,VWS V14.00,2013-03-07 14:06:00,
2013-03-07 06:11:00,39.3,37.5,29.96,NW,318,0.0,0.0,93,0.00,,---,0.00,VWS V14.00,2013-03-07 14:11:00,
2013-03-07 06:16:00,39.3,37.5,29.96,NW,318,0.0,0.0,93,0.00,,---,0.00,VWS V14.00,2013-03-07 14:16:00,
2013-03-07 06:21:00,39.3,37.5,29.96,NW,318,0.0,0.0,93,0.00,,---,0.00,VWS V14.00,2013-03-07 14:21:00,
2013-03-07 06:26:00,39.3,37.5,29.97,NW,318,0.0,0.0,93,0.00,,---,0.00,VWS V14.00,2013-03-07 14:26:00,
2013-03-07 06:31:00,39.3,37.5,29.97,NW,317,0.0,0.0,93,0.00,,---,0.00,VWS V14.00,2013-03-07 14:31:00,
2013-03-07 06:36:00,39.3,37.5,29.97,NW,318,0.0,0.0,93,0.00,,---,0.00,VWS V14.00,2013-03-07 14:36:00,
2013-03-07 06:41:00,39.3,37.5,29.97,NW,318,0.0,0.0,93,0.00,,---,0.00,VWS V14.00,2013-03-07 14:41:00,
2013-03-07 06:46:00,39.3,37.5,29.97,NW,318,0.0,0.0,93,0.00,,---,0.00,VWS V14.00,2013-03-07 14:46:00,
2013-03-07 06:51:00,39.3,37.5,29.97,NW,318,0.0,0.0,93,0.00,,---,0.00,VWS V14.00,2013-03-07 14:51:00,
2013-03-07 06:56:00,39.3,37.5,29.97,NW,318,0.0,0.0,93,0.00,,---,0.00,VWS V14.00,2013-03-07 14:56:00,
2013-03-07 07:01:00,39.4,37.5,29.98,NW,318,0.0,0.0,93,0.00,,---,0.00,VWS V14.00,2013-03-07 15:01:00,
2013-03-07 07:06:00,39.4,37.5,29.98,NW,318,0.0,0.0,93,0.00,,---,0.00,VWS V14.00,2013-03-07 15:06:00,
2013-03-07 07:11:00,39.5,37.7,29.98,NW,318,0.0,0.0,93,0.00,,---,0.00,VWS V14.00,2013-03-07 15:11:00,
2013-03-07 07:16:00,39.6,37.8,29.98,NW,318,0.0,0.0,93,0.00,,---,0.00,VWS V14.00,2013-03-07 15:16:00,
2013-03-07 07:21:00,39.7,37.8,29.98,NW,317,0.0,0.0,93,0.00,,---,0.00,VWS V14.00,2013-03-07 15:21:00,
2013-03-07 07:26:00,39.8,38.0,29.98,NW,318,0.0,0.0,93,0.00,,---,0.00,VWS V14.00,2013-03-07 15:26:00,
2013-03-07 07:31:00,39.9,38.0,29.99,NW,317,0.0,0.0,93,0.00,,---,0.00,VWS V14.00,2013-03-07 15:31:00,
2013-03-07 07:36:00,39.9,38.0,29.99,NW,317,0.0,0.0,93,0.00,,---,0.00,VWS V14.00,2013-03-07 15:36:00,
2013-03-07 07:41:00,40.0,38.1,29.99,NW,318,0.0,0.0,93,0.00,,---,0.00,VWS V14.00,2013-03-07 15:41:00,
2013-03-07 07:47:00,40.0,38.1,29.99,NW,318,0.0,0.0,93,0.00,,---,0.00,VWS V14.00,2013-03-07 15:47:00,
2013-03-07 07:52:00,40.1,38.2,30.00,NW,318,0.0,0.0,93,0.00,,---,0.00,VWS V14.00,2013-03-07 15:52:00,
2013-03-07 07:57:00,40.1,38.2,30.00,NW,317,0.0,0.0,93,0.00,,---,0.00,VWS V14.00,2013-03-07 15:57:00,
2013-03-07 08:02:00,40.1,38.2,30.00,NW,318,0.0,0.0,93,0.00,,---,0.00,VWS V14.00,2013-03-07 16:02:00,
2013-03-07 08:07:00,40.2,38.3,30.00,NW,317,0.0,0.0,93,0.00,,---,0.00,VWS V14.00,2013-03-07 16:07:00,
2013-03-07 08:12:00,40.2,38.3,30.00,NW,318,0.0,0.0,93,0.00,,---,0.00,VWS V14.00,2013-03-07 16:12:00,
2013-03-07 08:17:00,40.2,38.3,30.00,NW,318,0.0,0.0,93,0.00,,---,0.00,VWS V14.00,2013-03-07 16:17:00,
2013-03-07 08:22:00,40.3,38.4,30.00,NW,318,0.0,0.0,93,0.00,,---,0.00,VWS V14.00,2013-03-07 16:22:00,
2013-03-07 08:27:00,40.3,38.4,30.00,NW,317,0.0,0.0,93,0.00,,---,0.01,VWS V14.00,2013-03-07 16:27:00,
2013-03-07 08:32:00,40.4,38.8,30.01,NW,318,0.0,0.0,94,0.00,,---,0.01,VWS V14.00,2013-03-07 16:32:00,
2013-03-07 08:37:00,40.4,38.8,30.01,NW,318,0.0,0.0,94,0.00,,---,0.01,VWS V14.00,2013-03-07 16:37:00,
2013-03-07 08:42:00,40.5,38.6,30.01,NW,318,0.0,2.0,93,0.00,,---,0.01,VWS V14.00,2013-03-07 16:42:00,
2013-03-07 08:47:00,40.5,38.6,30.01,NW,323,1.0,2.0,93,0.00,,---,0.01,VWS V14.00,2013-03-07 16:47:00,
2013-03-07 08:52:00,40.6,38.7,30.01,NW,323,0.0,2.0,93,0.00,,---,0.01,VWS V14.00,2013-03-07 16:52:00,
2013-03-07 08:57:00,40.6,38.7,30.01,NE,38,0.0,2.0,93,0.00,,---,0.01,VWS V14.00,2013-03-07 16:57:00,
2013-03-07 09:02:00,40.6,38.7,30.01,NE,38,0.0,1.0,93,0.00,,---,0.01,VWS V14.00,2013-03-07 17:02:00,
2013-03-07 09:07:00,40.6,38.7,30.01,NE,38,0.0,2.0,93,0.00,,---,0.01,VWS V14.00,2013-03-07 17:07:00,
2013-03-07 09:12:00,40.6,38.7,30.01,NE,38,0.0,1.0,93,0.00,,---,0.01,VWS V14.00,2013-03-07 17:12:00,
2013-03-07 09:17:00,40.7,38.8,30.02,NE,38,1.0,2.0,93,0.00,,---,0.01,VWS V14.00,2013-03-07 17:17:00,
2013-03-07 09:22:00,40.7,38.8,30.02,NE,38,1.0,2.0,93,0.00,,---,0.01,VWS V14.00,2013-03-07 17:22:00,
2013-03-07 09:27:00,40.8,38.9,30.02,NE,38,0.0,2.0,93,0.00,,---,0.01,VWS V14.00,2013-03-07 17:27:00,
2013-03-07 09:32:00,40.9,39.0,30.02,NE,38,1.0,2.0,93,0.00,,---,0.01,VWS V14.00,2013-03-07 17:32:00,
2013-03-07 09:37:00,40.9,39.0,30.03,NE,38,1.0,2.0,93,0.00,,---,0.01,VWS V14.00,2013-03-07 17:37:00,
2013-03-07 09:42:00,40.9,39.0,30.03,NE,38,2.0,2.0,93,0.00,,---,0.01,VWS V14.00,2013-03-07 17:42:00,
2013-03-07 09:47:00,40.9,39.0,30.03,NE,38,0.0,2.0,93,0.00,,---,0.01,VWS V14.00,2013-03-07 17:47:00,
2013-03-07 09:52:00,40.7,38.8,30.03,NE,38,0.0,2.0,93,0.00,,---,0.01,VWS V14.00,2013-03-07 17:52:00,
2013-03-07 09:57:00,40.5,38.6,30.03,NE,38,0.0,2.0,93,0.00,,---,0.01,VWS V14.00,2013-03-07 17:57:00,
2013-03-07 10:02:00,40.5,38.6,30.03,NE,38,0.0,1.0,93,0.00,,---,0.01,VWS V14.00,2013-03-07 18:02:00,
2013-03-07 10:07:00,40.4,38.5,30.04,NE,38,0.0,1.0,93,0.00,,---,0.01,VWS V14.00,2013-03-07 18:07:00,
2013-03-07 10:12:00,40.4,38.5,30.04,NE,38,0.0,2.0,93,0.00,,---,0.01,VWS V14.00,2013-03-07 18:12:00,
2013-03-07 10:17:00,40.2,38.3,30.04,NE,38,0.0,1.0,93,0.00,,---,0.01,VWS V14.00,2013-03-07 18:17:00,
2013-03-07 10:22:00,40.2,38.3,30.04,NE,41,0.0,3.0,93,0.00,,---,0.01,VWS V14.00,2013-03-07 18:22:00,
2013-03-07 10:27:00,40.1,38.2,30.04,NE,40,1.0,2.0,93,0.00,,---,0.01,VWS V14.00,2013-03-07 18:27:00,
2013-03-07 10:32:00,40.1,38.2,30.04,NE,44,0.0,2.0,93,0.00,,---,0.01,VWS V14.00,2013-03-07 18:32:00,
2013-03-07 10:37:00,40.1,38.2,30.04,NE,51,0.0,2.0,93,0.00,,---,0.01,VWS V14.00,2013-03-07 18:37:00,
2013-03-07 10:42:00,40.2,38.6,30.05,NE,50,0.0,1.0,94,0.00,,---,0.01,VWS V14.00,2013-03-07 18:42:00,
2013-03-07 10:47:00,40.2,38.6,30.05,NE,50,0.0,0.0,94,0.00,,---,0.01,VWS V14.00,2013-03-07 18:47:00,
2013-03-07 10:52:00,40.2,38.6,30.05,NNE,32,0.0,1.0,94,0.00,,---,0.01,VWS V14.00,2013-03-07 18:52:00,
2013-03-07 10:57:00,40.1,38.5,30.05,ENE,61,0.0,3.0,94,0.00,,---,0.01,VWS V14.00,2013-03-07 18:57:00,
2013-03-07 11:02:00,40.0,38.4,30.05,ENE,61,0.0,1.0,94,0.00,,---,0.01,VWS V14.00,2013-03-07 19:02:00,
2013-03-07 11:07:00,39.9,38.3,30.05,ENE,61,0.0,2.0,94,0.00,,---,0.01,VWS V14.00,2013-03-07 19:07:00,
2013-03-07 11:12:00,39.9,38.3,30.05,ENE,61,0.0,2.0,94,0.00,,---,0.01,VWS V14.00,2013-03-07 19:12:00,
2013-03-07 11:17:00,39.8,38.0,30.05,ENE,61,0.0,1.0,93,0.00,,---,0.01,VWS V14.00,2013-03-07 19:17:00,
2013-03-07 11:22:00,39.8,38.0,30.05,ENE,67,1.0,2.0,93,0.00,,---,0.01,VWS V14.00,2013-03-07 19:22:00,
2013-03-07 11:27:00,39.8,38.0,30.06,ENE,67,0.0,1.0,93,0.00,,---,0.01,VWS V14.00,2013-03-07 19:27:00,
2013-03-07 11:32:00,39.9,38.3,30.06,ENE,67,0.0,2.0,94,0.00,,---,0.01,VWS V14.00,2013-03-07 19:32:00,
2013-03-07 11:37:00,39.8,38.2,30.06,ENE,61,0.0,3.0,94,0.00,,---,0.01,VWS V14.00,2013-03-07 19:37:00,
2013-03-07 11:42:00,39.9,38.3,30.06,ENE,61,0.0,1.0,94,0.00,,---,0.01,VWS V14.00,2013-03-07 19:42:00,
2013-03-07 11:47:00,39.9,38.3,30.06,ENE,60,0.0,1.0,94,0.00,,---,0.01,VWS V14.00,2013-03-07 19:47:00,
2013-03-07 11:52:00,40.0,38.4,30.06,ENE,60,0.0,0.0,94,0.00,,---,0.01,VWS V14.00,2013-03-07 19:52:00,
2013-03-07 11:57:00,40.0,38.4,30.07,ENE,60,0.0,1.0,94,0.00,,---,0.01,VWS V14.00,2013-03-07 19:57:00,
2013-03-07 12:02:00,40.2,38.6,30.07,ENE,60,0.0,0.0,94,0.00,,---,0.01,VWS V14.00,2013-03-07 20:02:00,
2013-03-07 12:07:00,40.3,38.7,30.07,ENE,60,0.0,0.0,94,0.00,,---,0.01,VWS V14.00,2013-03-07 20:07:00,
2013-03-07 12:12:00,40.2,38.6,30.07,ENE,60,0.0,1.0,94,0.00,,---,0.02,VWS V14.00,2013-03-07 20:12:00,
2013-03-07 12:17:00,40.3,38.7,30.07,ENE,60,0.0,1.0,94,0.00,,---,0.02,VWS V14.00,2013-03-07 20:17:00,
2013-03-07 12:22:00,40.4,38.8,30.07,ENE,60,0.0,1.0,94,0.00,,---,0.02,VWS V14.00,2013-03-07 20:22:00,
2013-03-07 12:27:00,40.5,38.9,30.07,ENE,61,0.0,0.0,94,0.04,,---,0.02,VWS V14.00,2013-03-07 20:27:00,
2013-03-07 12:32:00,40.4,38.8,30.07,East,92,0.0,1.0,94,0.04,,---,0.02,VWS V14.00,2013-03-07 20:32:00,
2013-03-07 12:37:00,40.5,38.9,30.07,East,92,0.0,0.0,94,0.03,,---,0.02,VWS V14.00,2013-03-07 20:37:00,
2013-03-07 12:42:00,40.7,39.1,30.07,East,92,0.0,1.0,94,0.00,,---,0.02,VWS V14.00,2013-03-07 20:42:00,
2013-03-07 12:47:00,41.1,39.5,30.07,East,92,1.0,2.0,94,0.00,,---,0.02,VWS V14.00,2013-03-07 20:47:00,
2013-03-07 12:53:00,41.5,39.9,30.07,East,92,0.0,2.0,94,0.00,,---,0.02,VWS V14.00,2013-03-07 20:53:00,
2013-03-07 12:58:00,41.8,40.2,30.07,NE,44,0.0,3.0,94,0.00,,---,0.02,VWS V14.00,2013-03-07 20:58:00,
2013-03-07 13:03:00,42.2,40.6,30.07,NE,45,2.0,3.0,94,0.00,,---,0.02,VWS V14.00,2013-03-07 21:03:00,
2013-03-07 13:08:00,41.8,40.2,30.07,NE,44,0.0,2.0,94,0.00,,---,0.02,VWS V14.00,2013-03-07 21:08:00,
2013-03-07 13:13:00,41.8,40.2,30.07,NE,45,0.0,1.0,94,0.00,,---,0.02,VWS V14.00,2013-03-07 21:13:00,
2013-03-07 13:18:00,41.6,40.0,30.07,NE,45,0.0,1.0,94,0.00,,---,0.02,VWS V14.00,2013-03-07 21:18:00,
2013-03-07 13:23:00,41.6,40.0,30.07,NE,45,0.0,1.0,94,0.00,,---,0.02,VWS V14.00,2013-03-07 21:23:00,
2013-03-07 13:28:00,41.9,40.3,30.07,NE,44,0.0,1.0,94,0.00,,---,0.02,VWS V14.00,2013-03-07 21:28:00,
2013-03-07 13:33:00,42.0,40.4,30.07,NE,44,0.0,1.0,94,0.00,,---,0.02,VWS V14.00,2013-03-07 21:33:00,
2013-03-07 13:38:00,41.8,40.2,30.07,NE,45,0.0,1.0,94,0.00,,---,0.02,VWS V14.00,2013-03-07 21:38:00,
2013-03-07 13:43:00,41.9,40.3,30.07,NE,45,0.0,1.0,94,0.00,,---,0.02,VWS V14.00,2013-03-07 21:43:00,
2013-03-07 13:48:00,41.8,40.2,30.07,NE,44,0.0,1.0,94,0.00,,---,0.02,VWS V14.00,2013-03-07 21:48:00,
2013-03-07 13:53:00,41.6,40.0,30.07,NE,44,0.0,1.0,94,0.00,,---,0.02,VWS V14.00,2013-03-07 21:53:00,
2013-03-07 13:57:00,41.7,40.1,30.07,NE,44,0.0,1.0,94,0.00,,---,0.02,VWS V14.00,2013-03-07 21:57:00,
2013-03-07 14:02:00,41.5,39.9,30.07,NE,44,0.0,1.0,94,0.00,,---,0.02,VWS V14.00,2013-03-07 22:02:00,
2013-03-07 14:07:00,41.5,39.9,30.07,NE,45,0.0,1.0,94,0.00,,---,0.02,VWS V14.00,2013-03-07 22:07:00,
2013-03-07 14:12:00,41.4,39.8,30.08,NE,45,1.0,1.0,94,0.00,,---,0.02,VWS V14.00,2013-03-07 22:12:00,
2013-03-07 14:18:00,41.5,39.9,30.07,NE,45,0.0,1.0,94,0.00,,---,0.02,VWS V14.00,2013-03-07 22:18:00,
2013-03-07 14:23:00,41.5,39.9,30.07,NE,44,0.0,1.0,94,0.00,,---,0.02,VWS V14.00,2013-03-07 22:23:00,
2013-03-07 14:28:00,41.8,40.2,30.07,NE,45,1.0,2.0,94,0.00,,---,0.02,VWS V14.00,2013-03-07 22:28:00,
2013-03-07 14:33:00,41.9,40.3,30.07,NE,44,0.0,2.0,94,0.00,,---,0.02,VWS V14.00,2013-03-07 22:33:00,
2013-03-07 14:38:00,41.8,40.2,30.08,NE,44,0.0,1.0,94,0.00,,---,0.02,VWS V14.00,2013-03-07 22:38:00,
2013-03-07 14:43:00,41.6,40.0,30.08,NE,45,0.0,0.0,94,0.00,,---,0.02,VWS V14.00,2013-03-07 22:43:00,
2013-03-07 14:48:00,41.7,40.1,30.08,NE,44,0.0,1.0,94,0.00,,---,0.02,VWS V14.00,2013-03-07 22:48:00,
2013-03-07 14:53:00,41.8,40.2,30.08,NE,45,0.0,0.0,94,0.00,,---,0.02,VWS V14.00,2013-03-07 22:53:00,
2013-03-07 14:58:00,41.8,40.2,30.08,NE,45,0.0,1.0,94,0.00,,---,0.02,VWS V14.00,2013-03-07 22:58:00,
2013-03-07 15:03:00,41.7,40.1,30.08,NE,45,0.0,0.0,94,0.00,,---,0.02,VWS V14.00,2013-03-07 23:03:00,
2013-03-07 15:08:00,41.7,40.1,30.08,NE,44,0.0,0.0,94,0.00,,---,0.02,VWS V14.00,2013-03-07 23:08:00,
2013-03-07 15:13:00,41.9,40.3,30.08,NE,45,0.0,1.0,94,0.00,,---,0.02,VWS V14.00,2013-03-07 23:13:00,
2013-03-07 15:18:00,41.8,40.2,30.08,NE,45,0.0,0.0,94,0.00,,---,0.02,VWS V14.00,2013-03-07 23:18:00,
2013-03-07 15:23:00,41.8,40.2,30.08,NE,45,0.0,0.0,94,0.00,,---,0.02,VWS V14.00,2013-03-07 23:23:00,
2013-03-07 15:28:00,41.7,40.1,30.08,NE,44,0.0,1.0,94,0.00,,---,0.02,VWS V14.00,2013-03-07 23:28:00,
2013-03-07 15:33:00,41.9,40.3,30.08,NE,45,0.0,0.0,94,0.00,,---,0.02,VWS V14.00,2013-03-07 23:33:00,
2013-03-07 15:38:00,42.0,40.4,30.08,NE,44,0.0,0.0,94,0.00,,---,0.02,VWS V14.00,2013-03-07 23:38:00,
2013-03-07 15:43:00,42.0,40.4,30.08,NE,44,0.0,0.0,94,0.00,,---,0.02,VWS V14.00,2013-03-07 23:43:00,
2013-03-07 15:48:00,42.0,40.4,30.08,NE,45,0.0,0.0,94,0.00,,---,0.02,VWS V14.00,2013-03-07 23:48:00,
2013-03-07 15:53:00,41.9,40.3,30.08,NE,45,0.0,0.0,94,0.00,,---,0.02,VWS V14.00,2013-03-07 23:53:00,
2013-03-07 15:58:00,41.9,40.3,30.08,NE,45,0.0,1.0,94,0.00,,---,0.02,VWS V14.00,2013-03-07 23:58:00,
2013-03-07 16:03:00,42.0,40.4,30.08,NE,45,0.0,0.0,94,0.00,,---,0.02,VWS V14.00,2013-03-08 00:03:00,
2013-03-07 16:08:00,42.1,40.5,30.08,NE,45,0.0,0.0,94,0.00,,---,0.02,VWS V14.00,2013-03-08 00:08:00,
2013-03-07 16:13:00,42.2,40.6,30.08,NE,45,0.0,1.0,94,0.00,,---,0.02,VWS V14.00,2013-03-08 00:13:00,
2013-03-07 16:18:00,42.1,40.5,30.08,NE,45,1.0,2.0,94,0.00,,---,0.02,VWS V14.00,2013-03-08 00:18:00,
2013-03-07 16:23:00,42.1,40.5,30.08,NE,44,0.0,1.0,94,0.00,,---,0.02,VWS V14.00,2013-03-08 00:23:00,
2013-03-07 16:28:00,42.0,40.4,30.08,NE,45,0.0,1.0,94,0.00,,---,0.02,VWS V14.00,2013-03-08 00:28:00,
2013-03-07 16:33:00,42.0,40.4,30.08,NE,44,0.0,0.0,94,0.00,,---,0.02,VWS V14.00,2013-03-08 00:33:00,
2013-03-07 16:38:00,42.0,40.4,30.08,NE,45,0.0,0.0,94,0.00,,---,0.02,VWS V14.00,2013-03-08 00:38:00,
2013-03-07 16:43:00,42.0,40.4,30.08,NE,44,0.0,0.0,94,0.00,,---,0.02,VWS V14.00,2013-03-08 00:43:00,
2013-03-07 16:48:00,41.9,40.3,30.08,NE,45,0.0,1.0,94,0.00,,---,0.02,VWS V14.00,2013-03-08 00:48:00,
2013-03-07 16:53:00,41.9,40.3,30.08,NE,45,0.0,1.0,94,0.00,,---,0.02,VWS V14.00,2013-03-08 00:53:00,
2013-03-07 16:58:00,41.9,40.3,30.08,NE,45,0.0,1.0,94,0.00,,---,0.02,VWS V14.00,2013-03-08 00:58:00,
2013-03-07 17:03:00,41.9,40.3,30.08,NE,45,0.0,2.0,94,0.00,,---,0.02,VWS V14.00,2013-03-08 01:03:00,
2013-03-07 17:08:00,41.9,40.3,30.08,NE,45,0.0,1.0,94,0.00,,---,0.02,VWS V14.00,2013-03-08 01:08:00,
2013-03-07 17:13:00,41.8,40.2,30.08,NE,45,0.0,1.0,94,0.00,,---,0.02,VWS V14.00,2013-03-08 01:13:00,
2013-03-07 17:18:00,41.8,40.2,30.08,NE,45,0.0,0.0,94,0.00,,---,0.02,VWS V14.00,2013-03-08 01:18:00,
2013-03-07 17:23:00,41.8,40.2,30.08,NE,44,0.0,0.0,94,0.00,,---,0.02,VWS V14.00,2013-03-08 01:23:00,
2013-03-07 17:28:00,41.7,40.1,30.08,NE,45,0.0,0.0,94,0.00,,---,0.02,VWS V14.00,2013-03-08 01:28:00,
2013-03-07 17:33:00,41.7,40.1,30.08,NE,45,0.0,0.0,94,0.00,,---,0.02,VWS V14.00,2013-03-08 01:33:00,
2013-03-07 17:38:00,41.5,39.9,30.09,NE,45,0.0,1.0,94,0.00,,---,0.02,VWS V14.00,2013-03-08 01:38:00,
2013-03-07 17:43:00,41.3,39.7,30.09,NE,45,0.0,0.0,94,0.00,,---,0.02,VWS V14.00,2013-03-08 01:43:00,
2013-03-07 17:48:00,41.1,39.5,30.09,NE,44,0.0,0.0,94,0.00,,---,0.02,VWS V14.00,2013-03-08 01:48:00,
2013-03-07 17:53:00,41.1,39.5,30.09,NE,45,0.0,0.0,94,0.00,,---,0.02,VWS V14.00,2013-03-08 01:53:00,
2013-03-07 17:58:00,41.0,39.4,30.09,NE,45,0.0,0.0,94,0.00,,---,0.02,VWS V14.00,2013-03-08 01:58:00,
2013-03-07 18:03:00,41.0,39.4,30.09,NE,44,0.0,0.0,94,0.00,,---,0.02,VWS V14.00,2013-03-08 02:03:00,
2013-03-07 18:08:00,41.0,39.4,30.09,NE,45,0.0,0.0,94,0.00,,---,0.02,VWS V14.00,2013-03-08 02:08:00,
2013-03-07 18:13:00,40.9,39.3,30.09,NE,45,0.0,0.0,94,0.00,,---,0.02,VWS V14.00,2013-03-08 02:13:00,
2013-03-07 18:18:00,40.9,39.3,30.09,NE,45,0.0,0.0,94,0.00,,---,0.02,VWS V14.00,2013-03-08 02:18:00,
2013-03-07 18:23:00,40.7,39.1,30.09,NE,44,0.0,0.0,94,0.00,,---,0.02,VWS V14.00,2013-03-08 02:23:00,
2013-03-07 18:28:00,40.6,39.0,30.09,NE,44,0.0,0.0,94,0.00,,---,0.02,VWS V14.00,2013-03-08 02:28:00,
2013-03-07 18:33:00,40.6,39.0,30.09,NE,45,0.0,0.0,94,0.00,,---,0.02,VWS V14.00,2013-03-08 02:33:00,
2013-03-07 18:38:00,40.6,39.0,30.10,NE,45,0.0,0.0,94,0.00,,---,0.02,VWS V14.00,2013-03-08 02:38:00,
2013-03-07 18:43:00,40.5,38.9,30.10,NE,45,0.0,0.0,94,0.00,,---,0.02,VWS V14.00,2013-03-08 02:43:00,
2013-03-07 18:48:00,40.5,38.9,30.10,NE,44,0.0,0.0,94,0.00,,---,0.02,VWS V14.00,2013-03-08 02:48:00,
2013-03-07 18:53:00,40.5,38.9,30.10,NE,45,0.0,0.0,94,0.00,,---,0.02,VWS V14.00,2013-03-08 02:53:00,
2013-03-07 18:58:00,40.5,38.9,30.10,NE,45,0.0,0.0,94,0.00,,---,0.02,VWS V14.00,2013-03-08 02:58:00,
2013-03-07 19:03:00,40.5,38.9,30.10,NE,45,0.0,0.0,94,0.00,,---,0.02,VWS V14.00,2013-03-08 03:03:00,
2013-03-07 19:08:00,40.4,38.8,30.10,NE,44,0.0,0.0,94,0.00,,---,0.02,VWS V14.00,2013-03-08 03:08:00,
2013-03-07 19:13:00,40.4,38.8,30.10,NE,44,0.0,0.0,94,0.00,,---,0.02,VWS V14.00,2013-03-08 03:13:00,
2013-03-07 19:18:00,40.2,38.6,30.10,NE,44,0.0,0.0,94,0.00,,---,0.02,VWS V14.00,2013-03-08 03:18:00,
2013-03-07 19:23:00,39.9,38.3,30.10,NE,44,0.0,0.0,94,0.00,,---,0.02,VWS V14.00,2013-03-08 03:23:00,
2013-03-07 19:28:00,39.5,37.7,30.10,NE,44,0.0,0.0,93,0.00,,---,0.02,VWS V14.00,2013-03-08 03:28:00,
2013-03-07 19:33:00,39.1,37.2,30.10,NE,44,0.0,0.0,93,0.00,,---,0.02,VWS V14.00,2013-03-08 03:33:00,
2013-03-07 19:38:00,38.7,36.8,30.10,NE,44,0.0,0.0,93,0.00,,---,0.02,VWS V14.00,2013-03-08 03:38:00,
2013-03-07 19:43:00,38.3,36.5,30.10,NE,45,0.0,0.0,93,0.00,,---,0.02,VWS V14.00,2013-03-08 03:43:00,
2013-03-07 19:48:00,37.9,36.1,30.10,NE,45,0.0,0.0,93,0.00,,---,0.02,VWS V14.00,2013-03-08 03:48:00,
2013-03-07 19:53:00,37.6,35.8,30.11,NE,45,0.0,0.0,93,0.00,,---,0.02,VWS V14.00,2013-03-08 03:53:00,
2013-03-07 19:58:00,37.3,35.5,30.10,NE,44,0.0,0.0,93,0.00,,---,0.02,VWS V14.00,2013-03-08 03:58:00,
2013-03-07 20:03:00,37.1,35.3,30.10,NE,44,0.0,0.0,93,0.00,,---,0.02,VWS V14.00,2013-03-08 04:03:00,
2013-03-07 20:08:00,36.9,35.3,30.11,NE,45,0.0,0.0,94,0.00,,---,0.02,VWS V14.00,2013-03-08 04:08:00,
2013-03-07 20:13:00,36.8,35.0,30.11,NE,45,0.0,0.0,93,0.00,,---,0.02,VWS V14.00,2013-03-08 04:13:00,
2013-03-07 20:18:00,36.7,34.9,30.11,NE,45,0.0,0.0,93,0.00,,---,0.02,VWS V14.00,2013-03-08 04:18:00,
2013-03-07 20:23:00,36.6,34.8,30.11,NE,44,0.0,0.0,93,0.00,,---,0.02,VWS V14.00,2013-03-08 04:23:00,
2013-03-07 20:28:00,36.5,34.9,30.11,NE,44,0.0,0.0,94,0.00,,---,0.02,VWS V14.00,2013-03-08 04:28:00,
2013-03-07 20:33:00,36.3,34.7,30.11,NE,44,0.0,0.0,94,0.00,,---,0.02,VWS V14.00,2013-03-08 04:33:00,
2013-03-07 20:39:00,36.1,34.3,30.11,NE,45,0.0,0.0,93,0.00,,---,0.02,VWS V14.00,2013-03-08 04:39:00,
2013-03-07 20:44:00,35.8,34.0,30.11,NE,44,0.0,0.0,93,0.00,,---,0.02,VWS V14.00,2013-03-08 04:44:00,
2013-03-07 20:49:00,35.7,33.9,30.11,NE,45,0.0,0.0,93,0.00,,---,0.02,VWS V14.00,2013-03-08 04:49:00,
2013-03-07 20:54:00,35.6,33.8,30.11,NE,45,0.0,0.0,93,0.00,,---,0.02,VWS V14.00,2013-03-08 04:54:00,
2013-03-07 20:59:00,35.7,34.2,30.11,NE,44,0.0,0.0,94,0.00,,---,0.02,VWS V14.00,2013-03-08 04:59:00,
2013-03-07 21:00:00,35.7,34.2,30.11,NE,45,0.0,0.0,94,0.00,,---,0.02,VWS V14.00,2013-03-08 05:00:00,
2013-03-07 21:03:00,35.8,34.2,30.11,NE,45,0.0,0.0,94,0.00,,---,0.02,VWS V14.00,2013-03-08 05:03:00,
2013-03-07 21:08:00,35.8,34.2,30.11,NE,45,0.0,0.0,94,0.00,,---,0.02,VWS V14.00,2013-03-08 05:08:00,
2013-03-07 21:13:00,35.7,34.2,30.12,NE,45,0.0,0.0,94,0.00,,---,0.02,VWS V14.00,2013-03-08 05:13:00,
2013-03-07 21:18:00,35.7,34.2,30.11,NE,44,0.0,0.0,94,0.00,,---,0.02,VWS V14.00,2013-03-08 05:18:00,
2013-03-07 21:23:00,35.8,34.2,30.12,NE,45,0.0,0.0,94,0.00,,---,0.02,VWS V14.00,2013-03-08 05:23:00,
2013-03-07 21:28:00,36.1,34.5,30.12,NE,45,0.0,0.0,94,0.00,,---,0.02,VWS V14.00,2013-03-08 05:28:00,
2013-03-07 21:33:00,36.2,34.6,30.12,NE,45,0.0,0.0,94,0.00,,---,0.02,VWS V14.00,2013-03-08 05:33:00,
2013-03-07 21:38:00,36.4,34.8,30.12,NE,44,0.0,0.0,94,0.00,,---,0.02,VWS V14.00,2013-03-08 05:38:00,
2013-03-07 21:43:00,36.5,34.9,30.12,NE,45,0.0,0.0,94,0.00,,---,0.02,VWS V14.00,2013-03-08 05:43:00,
2013-03-07 21:48:00,36.6,35.0,30.12,NE,44,0.0,0.0,94,0.00,,---,0.02,VWS V14.00,2013-03-08 05:48:00,
2013-03-07 21:53:00,36.9,35.3,30.12,NE,44,0.0,0.0,94,0.00,,---,0.02,VWS V14.00,2013-03-08 05:53:00,
2013-03-07 21:58:00,37.0,35.4,30.12,NE,44,0.0,0.0,94,0.00,,---,0.02,VWS V14.00,2013-03-08 05:58:00,
2013-03-07 22:03:00,37.1,35.5,30.12,NE,44,0.0,0.0,94,0.00,,---,0.02,VWS V14.00,2013-03-08 06:03:00,
2013-03-07 22:08:00,37.1,35.5,30.12,NE,45,0.0,0.0,94,0.00,,---,0.02,VWS V14.00,2013-03-08 06:08:00,
2013-03-07 22:13:00,37.1,35.5,30.12,NE,44,0.0,0.0,94,0.00,,---,0.02,VWS V14.00,2013-03-08 06:13:00,
2013-03-07 22:18:00,37.0,35.4,30.13,NE,45,0.0,0.0,94,0.00,,---,0.02,VWS V14.00,2013-03-08 06:18:00,
2013-03-07 22:23:00,37.0,35.4,30.12,NE,45,0.0,0.0,94,0.00,,---,0.02,VWS V14.00,2013-03-08 06:23:00,
2013-03-07 22:28:00,37.1,35.5,30.12,NE,44,0.0,0.0,94,0.00,,---,0.02,VWS V14.00,2013-03-08 06:28:00,
2013-03-07 22:33:00,37.4,35.8,30.13,NE,44,0.0,0.0,94,0.00,,---,0.02,VWS V14.00,2013-03-08 06:33:00,
2013-03-07 22:38:00,37.6,36.0,30.12,NE,44,0.0,0.0,94,0.00,,---,0.02,VWS V14.00,2013-03-08 06:38:00,
2013-03-07 22:43:00,37.6,36.0,30.12,NE,45,0.0,0.0,94,0.00,,---,0.02,VWS V14.00,2013-03-08 06:43:00,
2013-03-07 22:48:00,37.6,36.0,30.13,NE,44,0.0,0.0,94,0.00,,---,0.02,VWS V14.00,2013-03-08 06:48:00,
2013-03-07 22:53:00,37.7,36.1,30.12,NE,45,0.0,0.0,94,0.00,,---,0.02,VWS V14.00,2013-03-08 06:53:00,
2013-03-07 22:58:00,37.7,36.1,30.12,NE,44,0.0,0.0,94,0.00,,---,0.02,VWS V14.00,2013-03-08 06:58:00,
2013-03-07 23:03:00,37.5,35.9,30.13,NE,45,0.0,0.0,94,0.00,,---,0.02,VWS V14.00,2013-03-08 07:03:00,
2013-03-07 23:08:00,37.4,35.8,30.13,NE,45,0.0,0.0,94,0.00,,---,0.02,VWS V14.00,2013-03-08 07:08:00,
2013-03-07 23:13:00,37.3,35.7,30.12,NE,45,0.0,0.0,94,0.00,,---,0.02,VWS V14.00,2013-03-08 07:13:00,
2013-03-07 23:18:00,37.1,35.5,30.12,NE,45,0.0,0.0,94,0.00,,---,0.02,VWS V14.00,2013-03-08 07:18:00,
2013-03-07 23:23:00,37.0,35.4,30.13,NE,44,0.0,0.0,94,0.00,,---,0.02,VWS V14.00,2013-03-08 07:23:00,
2013-03-07 23:28:00,36.8,35.2,30.13,NE,44,0.0,0.0,94,0.00,,---,0.02,VWS V14.00,2013-03-08 07:28:00,
2013-03-07 23:33:00,36.7,35.1,30.12,NE,45,0.0,0.0,94,0.00,,---,0.02,VWS V14.00,2013-03-08 07:33:00,
2013-03-07 23:38:00,36.5,34.9,30.13,NE,44,0.0,0.0,94,0.00,,---,0.02,VWS V14.00,2013-03-08 07:38:00,
2013-03-07 23:43:00,36.2,34.6,30.12,NE,44,0.0,0.0,94,0.00,,---,0.02,VWS V14.00,2013-03-08 07:43:00,
2013-03-07 23:48:00,36.1,34.5,30.12,NE,45,0.0,0.0,94,0.00,,---,0.02,VWS V14.00,2013-03-08 07:48:00,
2013-03-07 23:53:00,35.9,34.3,30.13,NE,45,0.0,0.0,94,0.00,,---,0.02,VWS V14.00,2013-03-08 07:53:00,
2013-03-07 23:57:00,35.8,34.2,30.13,NE,44,0.0,0.0,94,0.00,,---,0.02,VWS V14.00,2013-03-08 07:57:00,